Regional Weather Roundup
Issued by NWS

Home | Current Version | Previous Version | Text Only | Print | Product List | Glossary Off
Versions: 1 2 3 4 5 6 7 8 9 10 11 12 13 14 15 16 17 18 19 20 21 22 23 24 25 26 27 28 29 30 31 32 33 34 35 36 37 38 39 40 41 42 43 44 45 46 47 48 49 50

000
ASUS43 KFSD 171602
RWRSD

WEATHER ROUNDUP FOR SOUTH DAKOTA
NATIONAL WEATHER SERVICE SIOUX FALLS SD
1000 AM CST WED DEC 17 2014

NOTE: "FAIR" INDICATES FEW OR NO CLOUDS BELOW 12,000 FEET WITH NO
SIGNIFICANT WEATHER AND/OR OBSTRUCTIONS TO VISIBILITY.


SDZ001>005-009-010-012>017-171700-
NORTHWEST AND NORTH CENTRAL SOUTH DAKOTA

CITY           SKY/WX    TMP DP  RH WIND       PRES   REMARKS
BUFFALO          N/A     17  14  88 SE14      30.00S WCI   3
FAITH            N/A     16  13  88 SE15      30.14R WCI   1
MOBRIDGE       CLOUDY    16  11  80 SE10      30.24S WCI   4
$$

SDZ012>016-024>037-041>051-057-063-072>074-171700-
SOUTHWEST AND SOUTH CENTRAL SOUTH DAKOTA

CITY           SKY/WX    TMP DP  RH WIND       PRES   REMARKS
RAPID CTY ARPT CLOUDY    20  17  88 SE8       30.05R WCI  10
PIERRE         CLOUDY    17  14  88 SE13      30.25S WCI   4
CUSTER         MOSUNNY   23  18  81 SW3       29.90S
PHILIP         CLOUDY    21  17  84 SE14      30.16S WCI   8
PINE RIDGE     CLOUDY    24  19  81 S13       30.04S WCI  12
WINNER         CLOUDY    19  16  88 S10       30.24R WCI   7
$$

SDZ004>011-016>023-039-040-171700-
NORTHEAST SOUTH DAKOTA

CITY           SKY/WX    TMP DP  RH WIND       PRES   REMARKS
ABERDEEN       MOSUNNY    9   5  84 E5        30.35R FOG     WCI   1
WATERTOWN      MOSUNNY    8   4  83 NW3       30.29S
SISSETON         N/A      6   3  87 NW6       30.36S WCI  -4
$$

SDZ017-020-022-023-036>040-048>070-171700-
SOUTHEAST SOUTH DAKOTA

CITY           SKY/WX    TMP DP  RH WIND       PRES   REMARKS
SIOUX FALLS    MOSUNNY   11   7  84 CALM      30.34R
HURON          PTSUNNY    2  -1  88 CALM      30.36R FOG
MITCHELL       MOSUNNY    5   2  87 CALM      30.36S
YANKTON        MOSUNNY   10   7  85 CALM      30.36F
$$

ABBREVIATIONS USED IN REMARKS
   TC - TEMPERATURE IN CELSIUS
  WCI - WIND CHILL INDEX
   HX - HEAT INDEX
  VSB - VISIBILITY




USA.gov is the U.S. government's official web portal to all federal, state and local government web resources and services.